Location: Bun Machan
(52.1403°N, 7.3744°W)
Time: 18:04:42
(UTC+00:00)

Cosmos 1602 - Pass Details

Date: 14 July 2020
Orbit: 515 x 533 km, 82.5° (Epoch: 12 August)

Event Time Altitude Azimuth Distance (km) Brightness Sun altitude
Exits shadow 01:52:26 26° 193° (SSW) 1,040 4.6 -14.3°
Maximum altitude 01:54:29 84° 279° (W) 529 3.6 -14.2°
Drops below altitude 10° 01:58:23 10° 10° (N) 1,768 7.8 -14.0°
Sets 02:00:32 0° 11° (N) 2,664 9.1 -13.9°
